Showing default

KUIPER-00009, 63725

Orbit data source: Space-Track

KUIPER-00009, 63725 is a payload satellite owned by Kuiper Systems (US) in LEO that was launched on Mon, 28 Apr 2025 UTC via an ATLAS V 551 launch vehicle from the Air Force Eastern Test Range (AFETR). Payload-class satellites include a variety of spacecraft equipped with specific instruments for various scientific and technological missions. These include communications satellites like Starlink; space stations such as the ISS; scientific satellites like the Hubble; Earth observation satellites from companies like Planet Labs, Umbra, and HawkEye 360; GPS; miniature CubeSats for education and research; and military/defense satellites.

Loading next visibility...
Identifier
63725, 2025-088B
Orbit
LEO
Country
Flag of USUS
Related business
Manufacturer
Kuiper Systems
Mission
Operational Commercial Communications
Bus & Motor
KUIPER, Unknown motor
Mass
~490 kg wet, ~490 kg dry
Launch date (UTC)
2025-04-28 (8 months ago)
Launch vehicle
ATLAS V 551
Launch site
Air Force Eastern Test Range (AFETR)
Object type
Payload
Rocket body
Debris
Shape & HBR
Box + 2 Pan, 3.4 m
Radar Cross Section
2.326 m², Large (>1 m²)

Expand to show TLE details & history
Last TLE update: 22 hours ago

TLE from 22 hours ago
0 KUIPER-00009
1 63725U 25088B   25348.76291636 -.00002116  00000-0 -24822-3 0  9991
2 63725  51.9010 122.1637 0015462 167.4894 192.6455 14.79833046 35207
Epoch: 2025-12-14T18:18Z
TLE epoch observation values (Epoch: 2025-12-14T18:18:35.973Z)
Latitude
-0.00002°
Longitude
123.84262°
Altitude
641.171 km
Speed
7.533 km/s
True Right ascension
08h 08m 39s
True Declination
0° 00' 00"
Sunlit
Object was in full shadow at epoch
Visualization orbit readout
Latitude
Unknown
Longitude
Unknown
Altitude
Unknown
Speed
Unknown
Apparent Right ascension
Unknown
Apparent Declination
Unknown
Sunlit
N/A
Visualization observer readout
Local Sidereal Time
15:11:06
Azimuth
Unknown
Elevation
Unknown
Doppler factor
Unknown
Orbital elements
Apogee altitude
641.139 km
Perigee altitude
619.466 km
Semi-major axis
7,008.439 km
Eccentricity
0.00155
Inclination
51.901°
RAAN
122.1637°
Arg. of periapsis
167.4894°
True anomaly
192.60678°
Mean anomaly
192.6455°
Eccentric anomaly
192.62614°
Mean motion
3.69923 °/min
Orbital period
97.32 mins
BSTAR
-0.00024822
Loading maneuver chart data...
Computing Atmospheric mass density...
Loading historical data...
Loading historical data...
Loading historical data...
Loading historical data...
Loading historical data...
Loading historical data...
Loading historical data...

Documentation

Showing up to 5 results
|